Terug naar catalogus

FENGYUN 1C DEB

ActiefSSO
NORAD 35123·DEBRIS·🇨🇳 China

Gelanceerd May 10, 1999 vanaf Taiyuan Satellite Launch Center

Loading…

Volgende Passages (komende 24 uur)

TLE

VerouderendSource: Space-Track

Epoch: Sep 8, 2026, 11:50 UTC

1 35123U 99025DLB 26251.49371319  .00000549  00000-0  25295-3 0  9996
2 35123  99.1201  89.5477 0049844  24.5868 335.7671 14.24757767649146

Volg FENGYUN 1C DEB in realtime met AllMySat

Download on the App Store